Weather in Samarinda

Indonesia     0°30′31″N   117°09′25″E
temp.,
°C
wind,
m/s
gust,
m/s
humid.,
%
clouds,
%
prec.,
mm/h
press.,
hPa
HPBL,
m
27 july, tue
tue2723:00+24ssw11936 0.1 101035
02:00+24ssw1894100 0.8 1009262
05:00+24sw1695100 0.4 1009194
08:00+24sw179484 0.5 1011290
11:00+31ssw345954 0.0 10101257
14:00+33s344954 0.0 10072006
17:00+29s376598 0.0 1007721
20:00+25ssw29825 0.1 1008424
28 july, wed
wed2823:00+24s210905 0.2 1010334
02:00+23ssw199494 0.2 1009280
05:00+22wsw13965 0.0 100972
08:00+26sw248212 0.0 1011294
11:00+32ssw244857 0.0 10101311
14:00+33s344345 0.0 10071732
17:00+31s34575 0.0 1006992
20:00+25s210825 0.0 1009407
29 july, thu
thu2923:00+24ssw17885 0.0 1010257
02:00+23sw18955 0.0 1009225
05:00+23ssw129663 0.0 100949
08:00+26sw258282 0.0 1011347
11:00+32sw235546 0.1 10101597
14:00+29s247748 1.6 1007482
17:00+31sse246212 0.3 1007878
20:00+25s159216 0.3 1009149
30 july, fri
fri3023:00+24ssw149627 0.1 1010117
02:00+24ssw1799100 1.3 1008205
05:00+23sw1299100 1.1 100963
08:00+24wsw1497100 2.5 1011209
11:00+30sw236867 0.6 10101018
14:00+32s336242 1.8 10071301
17:00+30ssw24726 0.8 1007742
20:00+25sse179318 0.9 1009190
31 july, sat
sat3123:00+24sse11986 0.6 101122
02:00+23ssw189985 1.9 1008211
05:00+23wsw1510053 3.6 1009179
08:00+25wsw2497100 6.5 1011230
11:00+30ssw127198 1.2 1011857
14:00+29s237718 3.6 1008852
17:00+28s148042 1.9 1007545
20:00+24s169695 2.9 1009139